Regional Weather Roundup
Issued by NWS Jackson, KY

Home | Current Version | Previous Version | Graphics & Text | Print | Product List | Glossary On
Versions: 1 2 3 4 5 6 7 8 9 10 11 12 13 14 15 16 17 18 19 20 21 22 23 24 25 26 27 28 29 30 31 32 33 34 35 36 37 38 39 40 41 42 43 44 45 46 47 48 49 50
000
ASUS43 KJKL 031010
RWRJKL

EAST KENTUCKY HOURLY WEATHER ROUNDUP
NATIONAL WEATHER SERVICE JACKSON KY
600 AM EDT MON AUG 03 2015

NOTE: "FAIR" INDICATES FEW OR NO CLOUDS BELOW 12,000 FEET WITH
NO SIGNIFICANT WEATHER AND/OR OBSTRUCTIONS TO VISIBILITY.

* THESE REPORTS ARE NOT UNDER NWS QUALITY CONTROL AND MAY NOT
  REPORT WEATHER SUCH AS PRECIPITATION AND FOG.

KYZ079-080-083-085-087-088-110-112-115-119-120-031100
...EASTERN KENTUCKY...

CITY           SKY/WX    TMP DP  RH WIND       PRES   REMARKS
JACKSON        CLEAR     63  60  90 CALM      29.94R
LONDON         CLEAR     63  59  87 CALM      29.95R
SOMERSET*      PTCLDY    59  59 100 CALM      29.95R
MONTICELLO*    CLEAR     59  59 100 CALM      29.97R
WILLIAMSBURG*    N/A     57  57 100 CALM      29.96R
MIDDLESBORO*   CLOUDY    59  59 100 CALM      29.97R FOG
HAZARD APT*    SUNNY     63  63 100 CALM      29.94R
BLACK MTN*       N/A     64  54  68 SW5         N/A
PIKEVILLE APT* CLEAR     64  61  88 S5        29.94S
BIG SANDY*     SUNNY     64  62  92 SW3       29.92S
MOREHEAD APT*  SUNNY     64  61  88 S5        29.92F
$$

KYZ035-036-041-042-044-050-067-078-099-031100
...CENTRAL KENTUCKY...

CITY           SKY/WX    TMP DP  RH WIND       PRES   REMARKS
MT STERLING*   CLEAR     64  63  94 SW6       29.92F
FLEMING/MASON* CLEAR     64  61  88 SW3       29.91S
DANVILLE*      CLEAR     61  61 100 SW3       29.94S
RICHMOND*      CLEAR     64  59  82 CALM      29.92S
LEXINGTON      CLEAR     65  61  87 S7        29.91S
FRANKFORT      CLEAR     65  60  84 SW3       29.89S
$$

KYZ091>093-OHZ055-061-077-WVZ005-015-034-035-042-031100
...SOUTHERN OHIO/WEST VIRGINIA...

CITY           SKY/WX    TMP DP  RH WIND       PRES   REMARKS
COVINGTON      TSTM      69  58  67 NE25G49   29.96R
COLUMBUS       TSTM      64  60  87 N9        29.92F
DAYTON         TSTM      63  63 100 S13       29.92F
WILMINGTON     TSTM      62  59  90 NE9       29.96F
HUNTINGTON     CLEAR     62  60  93 CALM      29.89S
CHARLESTON     PTCLDY    61  60  97 CALM      29.90S
PINEVILLE*     CLEAR     59  59 100 MISG      30.01S
BECKLEY        CLEAR     61  54  77 CALM      29.98F
BLUEFIELD      CLEAR     70  53  54 VRB5      30.00F
$$

VAZ002-007-008-TNZ017-027-036-066-071-031100
...SOUTHWEST VIRGINIA/EAST TENNESSEE...

CITY           SKY/WX    TMP DP  RH WIND       PRES   REMARKS
WISE*          CLEAR     63  52  67 SW3       30.02S
ABINGDON*      CLEAR     64  58  78 CALM      29.98S
BRISTOL        CLEAR     62  60  93 CALM      29.95S
KNOXVILLE      CLEAR     68  65  90 CALM      29.92S
OAK RIDGE      CLEAR     63  61  93 CALM      29.95R
CROSSVILLE     CLEAR     61  58  90 CALM      29.99R
NASHVILLE      PTCLDY    66  64  93 CALM      29.93R
$$

...KEY TO REMARKS...
VSB - VISIBILITY IN MILES
WCI - WIND CHILL INDEX
HX  - HEAT INDEX

$$


USA.gov is the U.S. government's official web portal to all federal, state and local government web resources and services.